sat.trackr.live / text

‹ back to catalog

STARLINK-3730

NORAD 52139 · 2022-029BD

PAYLOAD ACTIVE UNKNOWN

§ Identity

Operator
Country
US
Launch date
2022-03-19
Launch site
AFETR
Launch vehicle
Mass (kg)
RCS (m²)

Purposes: comms

External: N2YO · Heavens-Above · Gunter

§ Orbital elements

Epoch: 2026-05-25T03:33:38.962368Z

Period
95.44 min
Inclination
53.2152°
Eccentricity
0.0001569
Mean motion
15.08836631 rev/d
Perigee alt
538.7 km
Apogee alt
540.8 km
Semi-major
6,917.9 km
B*
2.4294e-5
RAAN
95.8858°
Arg perigee
86.1134°
Mean anomaly
274.0037°
Rev number
23,233

§ Raw data

STARLINK-37301 52139U 22029BD  26145.14836762  .00000099  00000+0  24294-4 0  99922 52139  53.2152  95.8858 0001569  86.1134 274.0037 15.08836631232334

JSON: /api/v1/satellites/52139 · /tle

For live sub-satellite position, see the globe view (requires WebGL).

§ Visibility from observer

Set your observer location to see the next 7 days of passes ≥ 10°. The values pass through the URL so the page stays shareable.

No JS? Fill the form by hand. The geolocation button needs JavaScript.